"read_dt","SO2 (ppb)","flags","PMT voltage (V)","lamp voltage (V)","lamp intensity (Hz)","internal temp (C)","react chamber temp (C)","sample flow (l/min)","pres (mmHg)","SO2 bkg (ppb)","SO2 coefficient"
2014-03-09 00:00:00,6689E-2,5C000490,-0724,1375,5038,022.9,045.1,0.137,772.3,01.15,0.508
2014-03-09 00:01:00,6697E-2,5C000490,-0724,1375,5169,023.0,045.1,0.136,772.3,01.15,0.508
2014-03-09 00:02:00,6657E-2,5C000490,-0724,1375,5109,023.0,045.1,0.136,772.3,01.15,0.508
2014-03-09 00:03:00,6658E-2,5C000490,-0724,1375,5111,023.0,045.1,0.136,772.2,01.15,0.508
2014-03-09 00:04:00,6678E-2,5C000490,-0724,1375,5156,023.0,045.1,0.136,772.3,01.15,0.508
2014-03-09 00:05:00,6637E-2,5C000490,-0724,1375,5098,023.0,045.1,0.136,772.2,01.15,0.508
2014-03-09 00:06:00,6693E-2,5C000490,-0724,1375,5032,023.0,045.1,0.136,772.2,01.15,0.508
2014-03-09 00:07:00,6690E-2,5C000490,-0724,1375,5134,023.0,045.1,0.136,772.3,01.15,0.508
2014-03-09 00:08:00,6699E-2,5C000490,-0724,1375,5092,023.0,045.2,0.136,772.3,01.15,0.508
2014-03-09 00:09:00,6684E-2,5C000490,-0724,1375,5031,023.0,045.1,0.136,772.2,01.15,0.508
2014-03-09 00:10:00,6678E-2,5C000490,-0724,1375,5020,023.0,045.1,0.136,772.2,01.15,0.508
2014-03-09 00:11:00,6699E-2,5C000490,-0724,1375,5054,023.0,045.2,0.136,772.2,01.15,0.508
2014-03-09 00:12:00,6700E-2,5C000490,-0724,1375,5131,023.0,045.2,0.136,772.3,01.15,0.508
2014-03-09 00:13:00,6743E-2,5C000490,-0724,1375,5141,023.0,045.2,0.136,772.2,01.15,0.508
2014-03-09 00:14:00,6748E-2,5C000490,-0724,1375,5183,023.0,045.1,0.136,772.3,01.15,0.508
2014-03-09 00:15:00,6852E-2,5C000490,-0724,1375,5160,023.0,045.2,0.136,772.2,01.15,0.508
2014-03-09 00:16:00,6866E-2,5C000490,-0724,1375,5157,023.0,045.1,0.136,772.2,01.15,0.508
2014-03-09 00:17:00,6899E-2,5C000490,-0724,1375,5102,023.0,045.1,0.136,772.2,01.15,0.508
2014-03-09 00:18:00,6906E-2,5C000490,-0724,1375,5097,023.1,045.2,0.136,772.2,01.15,0.508
2014-03-09 00:19:00,6846E-2,5C000490,-0724,1375,5110,023.0,045.2,0.136,772.1,01.15,0.508
2014-03-09 00:20:00,6872E-2,5C000490,-0724,1375,5023,023.0,045.1,0.136,772.1,01.15,0.508
2014-03-09 00:21:00,7007E-2,5C000490,-0724,1375,5104,023.1,045.1,0.136,772.1,01.15,0.508
2014-03-09 00:22:00,6936E-2,5C000490,-0724,1375,4914,023.1,045.1,0.136,772.1,01.15,0.508
2014-03-09 00:23:00,7011E-2,5C000490,-0724,1375,5068,023.1,045.2,0.136,772.0,01.15,0.508
2014-03-09 00:24:00,6962E-2,5C000490,-0724,1375,4970,023.1,045.1,0.136,772.0,01.15,0.508
2014-03-09 00:25:00,6941E-2,5C000490,-0724,1375,4895,023.1,045.1,0.136,772.0,01.15,0.508
2014-03-09 00:26:00,6893E-2,5C000490,-0724,1375,4948,023.1,045.2,0.136,772.0,01.15,0.508
2014-03-09 00:27:00,7016E-2,5C000490,-0724,1375,4907,023.1,045.2,0.136,771.9,01.15,0.508
2014-03-09 00:28:00,6959E-2,5C000490,-0724,1375,4918,023.1,045.1,0.136,771.8,01.15,0.508
2014-03-09 00:29:00,7016E-2,5C000490,-0724,1375,4846,023.1,045.1,0.136,771.9,01.15,0.508
2014-03-09 00:30:00,6978E-2,5C000490,-0724,1375,4884,023.1,045.1,0.136,771.9,01.15,0.508
2014-03-09 00:31:00,7005E-2,5C000490,-0724,1375,4890,023.1,045.1,0.136,771.9,01.15,0.508
2014-03-09 00:32:00,6951E-2,5C000490,-0724,1375,4798,023.1,045.2,0.136,771.9,01.15,0.508
2014-03-09 00:33:00,7070E-2,5C000490,-0724,1375,4902,023.1,045.1,0.136,771.9,01.15,0.508
2014-03-09 00:34:00,6975E-2,5C000490,-0724,1375,4808,023.1,045.2,0.136,771.9,01.15,0.508
2014-03-09 00:35:00,6991E-2,5C000490,-0724,1375,4909,023.1,045.2,0.136,771.8,01.15,0.508
2014-03-09 00:36:00,6957E-2,5C000490,-0724,1375,4884,023.2,045.2,0.136,771.8,01.15,0.508
2014-03-09 00:37:00,7003E-2,5C000490,-0724,1375,4887,023.2,045.1,0.136,771.8,01.15,0.508
2014-03-09 00:38:00,6988E-2,5C000490,-0724,1375,4815,023.2,045.2,0.136,771.8,01.15,0.508
2014-03-09 00:39:00,6941E-2,5C000490,-0724,1375,4838,023.2,045.2,0.136,771.8,01.15,0.508
2014-03-09 00:40:00,6997E-2,5C000490,-0724,1375,4762,023.2,045.1,0.136,771.9,01.15,0.508
2014-03-09 00:41:00,7165E-2,5C000490,-0724,1375,4816,023.2,045.2,0.136,772.0,01.15,0.508
2014-03-09 00:42:00,7210E-2,5C000490,-0724,1375,4810,023.2,045.2,0.136,772.0,01.15,0.508
2014-03-09 00:43:00,7145E-2,5C000490,-0724,1375,4807,023.2,045.1,0.136,771.9,01.15,0.508
2014-03-09 00:44:00,7147E-2,5C000490,-0724,1375,4813,023.2,045.1,0.136,771.9,01.15,0.508
2014-03-09 00:45:00,7146E-2,5C000490,-0724,1375,4753,023.2,045.1,0.136,771.9,01.15,0.508
2014-03-09 00:46:00,7159E-2,5C000490,-0724,1375,4783,023.2,045.2,0.136,771.9,01.15,0.508
2014-03-09 00:47:00,7135E-2,5C000490,-0724,1375,4745,023.2,045.1,0.136,771.9,01.15,0.508
2014-03-09 00:48:00,7085E-2,5C000490,-0724,1375,4682,023.2,045.2,0.136,771.9,01.15,0.508
2014-03-09 00:49:00,7136E-2,5C000490,-0724,1375,4826,023.2,045.2,0.136,771.8,01.15,0.508
2014-03-09 00:50:00,7173E-2,5C000490,-0724,1375,4765,023.2,045.1,0.136,771.8,01.15,0.508
2014-03-09 00:51:00,7142E-2,5C000490,-0724,1375,4798,023.2,045.1,0.135,771.8,01.15,0.508
2014-03-09 00:52:00,7085E-2,5C000490,-0724,1375,4698,023.2,045.1,0.135,771.9,01.15,0.508
2014-03-09 00:53:00,7163E-2,5C000490,-0724,1375,4650,023.3,045.1,0.136,772.0,01.15,0.508
2014-03-09 00:54:00,7128E-2,5C000490,-0724,1375,4715,023.3,045.1,0.135,771.9,01.15,0.508
2014-03-09 00:55:00,7124E-2,5C000490,-0724,1375,4757,023.3,045.2,0.135,771.9,01.15,0.508
2014-03-09 00:56:00,7148E-2,5C000490,-0724,1375,4659,023.3,045.2,0.135,771.9,01.15,0.508
2014-03-09 00:57:00,7120E-2,5C000490,-0724,1375,4674,023.3,045.2,0.135,771.9,01.15,0.508
2014-03-09 00:58:00,7151E-2,5C000490,-0724,1375,4685,023.3,045.2,0.135,771.9,01.15,0.508
2014-03-09 00:59:00,7159E-2,5C000490,-0724,1375,4656,023.3,045.2,0.135,771.8,01.15,0.508
2014-03-09 01:00:00,7117E-2,5C000490,-0724,1375,4655,023.3,045.1,0.135,771.8,01.15,0.508
2014-03-09 01:01:00,7195E-2,5C000490,-0724,1375,4682,023.3,045.1,0.135,771.8,01.15,0.508
2014-03-09 01:02:00,7137E-2,5C000490,-0724,1375,4649,023.3,045.1,0.135,771.8,01.15,0.508
2014-03-09 01:03:00,7171E-2,5C000490,-0724,1375,4607,023.3,045.1,0.135,771.8,01.15,0.508
2014-03-09 01:04:00,7126E-2,5C000490,-0724,1375,4743,023.4,045.1,0.135,771.8,01.15,0.508
2014-03-09 01:05:00,7122E-2,5C000490,-0724,1375,4624,023.4,045.1,0.135,771.8,01.15,0.508
2014-03-09 01:06:00,7131E-2,5C000490,-0724,1375,4652,023.4,045.2,0.135,771.8,01.15,0.508
2014-03-09 01:07:00,7154E-2,5C000490,-0724,1375,4644,023.4,045.2,0.135,771.8,01.15,0.508
2014-03-09 01:08:00,7123E-2,5C000490,-0724,1375,4567,023.4,045.2,0.135,771.8,01.15,0.508
2014-03-09 01:09:00,7110E-2,5C000490,-0724,1375,4594,023.4,045.2,0.135,771.8,01.15,0.508
2014-03-09 01:10:00,7194E-2,5C000490,-0724,1375,4533,023.4,045.1,0.135,771.8,01.15,0.508
2014-03-09 01:11:00,7109E-2,5C000490,-0724,1375,4516,023.4,045.2,0.135,771.8,01.15,0.508
2014-03-09 01:12:00,7165E-2,5C000490,-0724,1375,4513,023.4,045.2,0.135,771.9,01.15,0.508
2014-03-09 01:13:00,7178E-2,5C000490,-0724,1375,4625,023.4,045.2,0.135,771.8,01.15,0.508
2014-03-09 01:14:00,7138E-2,5C000490,-0724,1375,4575,023.5,045.2,0.135,771.8,01.15,0.508
2014-03-09 01:15:00,7060E-2,5C000490,-0724,1375,4570,023.5,045.1,0.135,771.8,01.15,0.508
2014-03-09 01:16:00,7155E-2,5C000490,-0724,1375,4626,023.5,045.2,0.135,771.8,01.15,0.508
2014-03-09 01:17:00,7126E-2,5C000490,-0724,1375,4643,023.5,045.1,0.135,771.8,01.15,0.508
2014-03-09 01:18:00,7143E-2,5C000490,-0724,1375,4612,023.5,045.2,0.135,771.8,01.15,0.508
2014-03-09 01:19:00,7113E-2,5C000490,-0724,1375,4627,023.5,045.2,0.135,771.8,01.15,0.508
2014-03-09 01:20:00,7147E-2,5C000490,-0724,1375,4642,023.5,045.2,0.134,771.7,01.15,0.508
2014-03-09 01:21:00,7133E-2,5C000490,-0724,1375,4648,023.5,045.1,0.135,771.7,01.15,0.508
2014-03-09 01:22:00,7115E-2,5C000490,-0724,1375,4587,023.5,045.1,0.134,771.8,01.15,0.508
2014-03-09 01:23:00,7230E-2,5C000490,-0724,1375,4701,023.5,045.2,0.134,771.8,01.15,0.508
2014-03-09 01:24:00,7156E-2,5C000490,-0724,1375,4655,023.5,045.2,0.134,771.8,01.15,0.508
2014-03-09 01:25:00,7109E-2,5C000490,-0724,1375,4618,023.5,045.2,0.134,771.8,01.15,0.508
2014-03-09 01:26:00,7111E-2,5C000490,-0724,1375,4647,023.5,045.2,0.134,771.8,01.15,0.508
2014-03-09 01:27:00,7088E-2,5C000490,-0724,1375,4560,023.6,045.2,0.134,771.8,01.15,0.508
2014-03-09 01:28:00,7140E-2,5C000490,-0724,1375,4642,023.6,045.2,0.134,771.8,01.15,0.508
2014-03-09 01:29:00,7178E-2,5C000490,-0724,1375,4563,023.6,045.2,0.134,771.7,01.15,0.508
2014-03-09 01:30:00,7073E-2,5C000490,-0724,1375,4571,023.6,045.2,0.134,771.7,01.15,0.508
2014-03-09 01:31:00,7119E-2,5C000490,-0724,1375,4535,023.6,045.1,0.134,771.6,01.15,0.508
2014-03-09 01:32:00,7147E-2,5C000490,-0724,1375,4484,023.6,045.2,0.134,771.7,01.15,0.508
2014-03-09 01:33:00,7112E-2,5C000490,-0724,1375,4564,023.6,045.1,0.134,771.8,01.15,0.508
2014-03-09 01:34:00,7137E-2,5C000490,-0724,1375,4605,023.6,045.2,0.134,771.8,01.15,0.508
2014-03-09 01:35:00,7161E-2,5C000490,-0724,1375,4530,023.6,045.2,0.134,771.7,01.15,0.508
2014-03-09 01:36:00,7120E-2,5C000490,-0724,1375,4611,023.7,045.2,0.134,771.7,01.15,0.508
2014-03-09 01:37:00,7102E-2,5C000490,-0724,1375,4597,023.7,045.2,0.134,771.7,01.15,0.508
2014-03-09 01:38:00,7133E-2,5C000490,-0724,1375,4553,023.7,045.2,0.134,771.7,01.15,0.508
2014-03-09 01:39:00,7159E-2,5C000490,-0724,1375,4580,023.7,045.1,0.134,771.7,01.15,0.508
2014-03-09 01:40:00,7118E-2,5C000490,-0724,1375,4619,023.7,045.2,0.134,771.6,01.15,0.508
2014-03-09 01:41:00,7059E-2,5C000490,-0724,1375,4631,023.7,045.2,0.134,771.6,01.15,0.508
2014-03-09 01:42:00,7101E-2,5C000490,-0724,1375,4542,023.7,045.2,0.134,771.7,01.15,0.508
2014-03-09 01:43:00,7140E-2,5C000490,-0724,1375,4542,023.7,045.2,0.134,771.7,01.15,0.508
2014-03-09 01:44:00,7094E-2,5C000490,-0724,1375,4605,023.7,045.2,0.134,771.6,01.15,0.508
2014-03-09 01:45:00,7104E-2,5C000490,-0724,1375,4566,023.7,045.2,0.134,771.6,01.15,0.508
2014-03-09 01:46:00,7149E-2,5C000490,-0724,1375,4584,023.7,045.2,0.134,771.7,01.15,0.508
2014-03-09 01:47:00,7186E-2,5C000490,-0724,1375,4462,023.8,045.2,0.134,771.6,01.15,0.508
2014-03-09 01:48:00,7174E-2,5C000490,-0724,1375,4470,023.8,045.2,0.134,771.6,01.15,0.508
2014-03-09 01:49:00,7107E-2,5C000490,-0724,1375,4501,023.8,045.1,0.134,771.6,01.15,0.508
2014-03-09 01:50:00,7107E-2,5C000490,-0724,1375,4507,023.8,045.1,0.134,771.7,01.15,0.508
2014-03-09 01:51:00,7133E-2,5C000490,-0724,1375,4430,023.8,045.2,0.134,771.7,01.15,0.508
2014-03-09 01:52:00,7103E-2,5C000490,-0724,1375,4481,023.8,045.2,0.133,771.6,01.15,0.508
2014-03-09 01:53:00,7120E-2,5C000490,-0724,1375,4467,023.9,045.2,0.133,771.7,01.15,0.508
2014-03-09 01:54:00,7134E-2,5C000490,-0724,1375,4472,023.9,045.2,0.133,771.8,01.15,0.508
2014-03-09 01:55:00,7146E-2,5C000490,-0724,1375,4457,023.9,045.2,0.133,771.7,01.15,0.508
2014-03-09 01:56:00,7103E-2,5C000490,-0724,1375,4391,023.9,045.2,0.133,771.5,01.15,0.508
2014-03-09 01:57:00,7147E-2,5C000490,-0724,1375,4463,023.9,045.2,0.133,771.6,01.15,0.508
2014-03-09 01:58:00,7120E-2,5C000490,-0724,1375,4427,023.9,045.2,0.133,771.6,01.15,0.508
2014-03-09 01:59:00,7078E-2,5C000490,-0724,1375,4450,023.9,045.2,0.133,771.5,01.15,0.508
2014-03-09 02:00:00,7138E-2,5C000490,-0724,1375,4467,023.9,045.2,0.133,771.6,01.15,0.508
2014-03-09 02:01:00,7145E-2,5C000490,-0724,1375,4410,023.9,045.2,0.133,771.6,01.15,0.508
2014-03-09 02:02:00,7125E-2,5C000490,-0724,1375,4485,024.0,045.2,0.133,771.7,01.15,0.508
2014-03-09 02:03:00,7124E-2,5C000490,-0724,1375,4489,024.0,045.2,0.133,771.6,01.15,0.508
2014-03-09 02:04:00,7121E-2,5C000490,-0724,1375,4456,024.0,045.2,0.133,771.5,01.15,0.508
2014-03-09 02:05:00,7115E-2,5C000490,-0724,1375,4427,024.0,045.2,0.133,771.5,01.15,0.508
2014-03-09 02:06:00,7154E-2,5C000490,-0724,1375,4416,024.0,045.2,0.133,771.5,01.15,0.508
2014-03-09 02:07:00,7144E-2,5C000490,-0724,1375,4413,024.0,045.2,0.133,771.5,01.15,0.508
2014-03-09 02:08:00,7119E-2,5C000490,-0724,1375,4421,024.0,045.2,0.133,771.5,01.15,0.508
2014-03-09 02:09:00,7173E-2,5C000490,-0724,1375,4441,024.0,045.2,0.133,771.5,01.15,0.508
2014-03-09 02:10:00,7009E-2,5C000490,-0724,1316,8022,024.1,045.2,0.133,771.5,01.15,0.508
2014-03-09 02:11:00,6886E-2,5C000490,-0724,1274,7991,024.1,045.2,0.132,771.5,01.15,0.508
2014-03-09 02:12:00,6849E-2,5C000490,-0724,1269,7739,024.1,045.2,0.132,771.5,01.15,0.508
2014-03-09 02:13:00,6854E-2,5C000490,-0724,1272,7718,024.1,045.2,0.132,771.5,01.15,0.508
2014-03-09 02:14:00,6832E-2,5C000490,-0724,1278,7713,024.1,045.2,0.132,771.6,01.15,0.508
2014-03-09 02:15:00,6751E-2,5C000490,-0724,1284,7814,024.1,045.2,0.132,771.5,01.15,0.508
2014-03-09 02:16:00,5041E-2,5C000490,-0724,1287,7721,024.1,045.2,0.132,771.6,01.15,0.508
2014-03-09 02:17:00,4970E-2,5C000490,-0724,1291,7645,024.2,045.2,0.132,771.6,01.15,0.508
2014-03-09 02:18:00,4994E-2,5C000490,-0724,1294,7591,024.2,045.2,0.132,771.5,01.15,0.508
2014-03-09 02:19:00,5001E-2,5C000490,-0724,1298,7521,024.2,045.2,0.132,771.5,01.15,0.508
2014-03-09 02:20:00,5030E-2,5C000490,-0724,1303,7589,024.2,045.2,0.132,771.6,01.15,0.508
2014-03-09 02:21:00,4955E-2,5C000490,-0724,1305,7470,024.2,045.2,0.132,771.5,01.15,0.508
2014-03-09 02:22:00,4969E-2,5C000490,-0724,1306,7529,024.2,045.2,0.132,771.5,01.15,0.508
2014-03-09 02:23:00,4982E-2,5C000490,-0724,1307,7494,024.2,045.2,0.132,771.5,01.15,0.508
2014-03-09 02:24:00,4948E-2,5C000490,-0724,1310,7307,024.2,045.2,0.132,771.5,01.15,0.508
2014-03-09 02:25:00,4949E-2,5C000490,-0724,1312,7371,024.2,045.2,0.132,771.5,01.15,0.508
2014-03-09 02:26:00,4993E-2,5C000490,-0724,1315,7435,024.2,045.2,0.132,771.5,01.15,0.508
2014-03-09 02:27:00,4928E-2,5C000490,-0724,1317,7498,024.3,045.2,0.132,771.4,01.15,0.508
2014-03-09 02:28:00,5043E-2,5C000490,-0724,1320,7365,024.3,045.2,0.132,771.4,01.15,0.508
2014-03-09 02:29:00,5076E-2,5C000490,-0724,1322,7416,024.3,045.2,0.132,771.6,01.15,0.508
2014-03-09 02:30:00,5156E-2,5C000490,-0724,1324,7290,024.3,045.2,0.132,771.5,01.15,0.508
2014-03-09 02:31:00,5232E-2,5C000490,-0724,1328,7266,024.3,045.2,0.131,771.4,01.15,0.508
2014-03-09 02:32:00,5292E-2,5C000490,-0724,1330,7196,024.3,045.2,0.131,771.4,01.15,0.508
2014-03-09 02:33:00,5298E-2,5C000490,-0724,1332,7290,024.3,045.2,0.132,771.5,01.15,0.508
2014-03-09 02:34:00,5304E-2,5C000490,-0724,1334,7119,024.4,045.2,0.131,771.4,01.15,0.508
2014-03-09 02:35:00,5333E-2,5C000490,-0724,1334,7234,024.3,045.2,0.131,771.4,01.15,0.508
2014-03-09 02:36:00,5332E-2,5C000490,-0724,1336,7217,024.4,045.2,0.131,771.4,01.15,0.508
2014-03-09 02:37:00,5267E-2,5C000490,-0724,1339,7214,024.4,045.2,0.131,771.4,01.15,0.508
2014-03-09 02:38:00,5279E-2,5C000490,-0724,1341,7183,024.4,045.2,0.131,771.4,01.15,0.508
2014-03-09 02:39:00,5318E-2,5C000490,-0724,1342,7142,024.4,045.2,0.131,771.4,01.15,0.508
2014-03-09 02:40:00,5389E-2,5C000490,-0724,1341,7184,024.4,045.2,0.131,771.4,01.15,0.508
2014-03-09 02:41:00,5319E-2,5C000490,-0724,1340,7165,024.4,045.2,0.131,771.4,01.15,0.508
2014-03-09 02:42:00,5327E-2,5C000490,-0724,1342,7082,024.4,045.2,0.131,771.3,01.15,0.508
2014-03-09 02:43:00,5304E-2,5C000490,-0724,1344,7166,024.5,045.2,0.131,771.3,01.15,0.508
2014-03-09 02:44:00,5292E-2,5C000490,-0724,1346,7122,024.4,045.2,0.131,771.3,01.15,0.508
2014-03-09 02:45:00,5306E-2,5C000490,-0724,1347,7130,024.5,045.2,0.131,771.3,01.15,0.508
2014-03-09 02:46:00,5332E-2,5C000490,-0724,1348,7087,024.5,045.2,0.131,771.4,01.15,0.508
2014-03-09 02:47:00,5286E-2,5C000490,-0724,1349,7054,024.5,045.2,0.131,771.5,01.15,0.508
2014-03-09 02:48:00,5332E-2,5C000490,-0724,1354,7043,024.5,045.2,0.131,771.5,01.15,0.508
2014-03-09 02:49:00,5319E-2,5C000490,-0724,1358,6932,024.5,045.2,0.131,771.4,01.15,0.508
2014-03-09 02:50:00,5323E-2,5C000490,-0724,1360,6889,024.5,045.2,0.131,771.3,01.15,0.508
2014-03-09 02:51:00,5342E-2,5C000490,-0724,1363,6876,024.5,045.2,0.131,771.3,01.15,0.508
2014-03-09 02:52:00,5365E-2,5C000490,-0724,1364,6770,024.6,045.2,0.131,771.4,01.15,0.508
2014-03-09 02:53:00,5360E-2,5C000490,-0724,1364,6883,024.6,045.2,0.131,771.3,01.15,0.508
2014-03-09 02:54:00,5290E-2,5C000490,-0724,1366,6815,024.6,045.2,0.131,771.3,01.15,0.508
2014-03-09 02:55:00,5306E-2,5C000490,-0724,1366,6748,024.6,045.2,0.131,771.3,01.15,0.508
2014-03-09 02:56:00,5366E-2,5C000490,-0724,1367,6837,024.6,045.2,0.130,771.2,01.15,0.508
2014-03-09 02:57:00,5400E-2,5C000490,-0724,1368,6833,024.6,045.2,0.131,771.4,01.15,0.508
2014-03-09 02:58:00,5353E-2,5C000490,-0724,1369,6809,024.6,045.2,0.130,771.3,01.15,0.508
2014-03-09 02:59:00,5346E-2,5C000490,-0724,1370,6694,024.6,045.2,0.130,771.2,01.15,0.508
2014-03-09 03:00:00,5341E-2,5C000490,-0724,1371,6791,024.6,045.2,0.130,771.3,01.15,0.508
2014-03-09 03:01:00,5339E-2,5C000490,-0724,1371,6736,024.6,045.2,0.130,771.3,01.15,0.508
2014-03-09 03:02:00,5367E-2,5C000490,-0724,1371,6610,024.7,045.2,0.130,771.2,01.15,0.508
2014-03-09 03:03:00,5331E-2,5C000490,-0724,1372,6754,024.7,045.2,0.130,771.2,01.15,0.508
2014-03-09 03:04:00,5314E-2,5C000490,-0724,1372,6823,024.7,045.2,0.130,771.2,01.15,0.508
2014-03-09 03:05:00,5376E-2,5C000490,-0724,1372,6669,024.7,045.2,0.130,771.2,01.15,0.508
2014-03-09 03:06:00,5371E-2,5C000490,-0724,1372,6704,024.7,045.2,0.130,771.2,01.15,0.508
2014-03-09 03:07:00,5390E-2,5C000490,-0724,1372,6773,024.7,045.2,0.130,771.2,01.15,0.508
2014-03-09 03:08:00,5319E-2,5C000490,-0724,1372,6708,024.7,045.2,0.130,771.2,01.15,0.508
2014-03-09 03:09:00,5435E-2,5C000490,-0724,1372,6705,024.7,045.2,0.130,771.2,01.15,0.508
2014-03-09 03:10:00,5425E-2,5C000490,-0724,1373,6704,024.7,045.2,0.130,771.2,01.15,0.508
2014-03-09 03:11:00,5464E-2,5C000490,-0724,1373,6748,024.8,045.2,0.130,771.2,01.15,0.508
2014-03-09 03:12:00,5430E-2,5C000490,-0724,1373,6649,024.8,045.2,0.130,771.2,01.15,0.508
2014-03-09 03:13:00,5465E-2,5C000490,-0724,1373,6607,024.8,045.2,0.130,771.2,01.15,0.508
2014-03-09 03:14:00,5380E-2,5C000490,-0724,1373,6653,024.8,045.2,0.130,771.2,01.15,0.508
2014-03-09 03:15:00,5403E-2,5C000490,-0724,1374,6667,024.8,045.2,0.130,771.2,01.15,0.508
2014-03-09 03:16:00,5461E-2,5C000490,-0724,1374,6546,024.8,045.2,0.130,771.2,01.15,0.508
2014-03-09 03:17:00,5442E-2,5C000490,-0724,1374,6479,024.8,045.2,0.130,771.2,01.15,0.508
2014-03-09 03:18:00,5424E-2,5C000490,-0724,1374,6666,024.8,045.2,0.130,771.2,01.15,0.508
2014-03-09 03:19:00,5431E-2,5C000490,-0724,1374,6621,024.8,045.2,0.130,771.2,01.15,0.508
2014-03-09 03:20:00,5426E-2,5C000490,-0724,1374,6636,024.9,045.2,0.130,771.2,01.15,0.508
2014-03-09 03:21:00,5486E-2,5C000490,-0724,1373,6681,024.9,045.2,0.130,771.1,01.15,0.508
2014-03-09 03:22:00,5427E-2,5C000490,-0724,1373,6619,024.9,045.2,0.129,771.0,01.15,0.508
2014-03-09 03:23:00,5485E-2,5C000490,-0724,1374,6675,024.9,045.2,0.129,771.2,01.15,0.508
2014-03-09 03:24:00,5469E-2,5C000490,-0724,1374,6675,024.9,045.2,0.129,771.2,01.15,0.508
2014-03-09 03:25:00,5531E-2,5C000490,-0724,1374,6597,024.9,045.2,0.129,771.2,01.15,0.508
2014-03-09 03:26:00,5482E-2,5C000490,-0724,1374,6501,025.0,045.2,0.129,771.1,01.15,0.508
2014-03-09 03:27:00,5543E-2,5C000490,-0724,1374,6589,024.9,045.2,0.129,771.2,01.15,0.508
2014-03-09 03:28:00,5491E-2,5C000490,-0724,1374,6594,025.0,045.2,0.129,771.2,01.15,0.508
2014-03-09 03:29:00,5523E-2,5C000490,-0724,1374,6579,025.0,045.2,0.129,771.2,01.15,0.508
2014-03-09 03:30:00,5515E-2,5C000490,-0724,1374,6530,025.0,045.2,0.129,771.2,01.15,0.508
2014-03-09 03:31:00,5508E-2,5C000490,-0724,1374,6606,025.0,045.2,0.129,771.1,01.15,0.508
2014-03-09 03:32:00,5574E-2,5C000490,-0724,1374,6587,025.0,045.2,0.129,771.1,01.15,0.508
2014-03-09 03:33:00,5555E-2,5C000490,-0724,1374,6596,025.0,045.2,0.129,771.2,01.15,0.508
2014-03-09 03:34:00,5583E-2,5C000490,-0724,1374,6602,025.0,045.2,0.129,771.2,01.15,0.508
2014-03-09 03:35:00,5547E-2,5C000490,-0724,1374,6502,025.0,045.2,0.129,771.1,01.15,0.508
2014-03-09 03:36:00,5575E-2,5C000490,-0724,1374,6598,025.0,045.2,0.129,771.2,01.15,0.508
2014-03-09 03:37:00,5568E-2,5C000490,-0724,1374,6520,025.0,045.2,0.129,771.1,01.15,0.508
2014-03-09 03:38:00,5570E-2,5C000490,-0724,1375,6621,025.1,045.2,0.129,771.1,01.15,0.508
2014-03-09 03:39:00,5564E-2,5C000490,-0724,1375,6578,025.1,045.2,0.129,771.1,01.15,0.508
2014-03-09 03:40:00,5540E-2,5C000490,-0724,1375,6496,025.1,045.2,0.129,771.1,01.15,0.508
2014-03-09 03:41:00,5574E-2,5C000490,-0724,1375,6473,025.1,045.2,0.129,771.2,01.15,0.508
2014-03-09 03:42:00,5533E-2,5C000490,-0724,1375,6510,025.1,045.2,0.129,771.2,01.15,0.508
2014-03-09 03:43:00,5561E-2,5C000490,-0724,1375,6493,025.1,045.2,0.129,771.1,01.15,0.508
2014-03-09 03:44:00,5551E-2,5C000490,-0724,1375,6321,025.1,045.2,0.129,771.1,01.15,0.508
2014-03-09 03:45:00,5591E-2,5C000490,-0724,1375,6440,025.2,045.2,0.128,771.1,01.15,0.508
2014-03-09 03:46:00,5567E-2,5C000490,-0724,1375,6422,025.2,045.2,0.128,771.1,01.15,0.508
2014-03-09 03:47:00,5584E-2,5C000490,-0724,1375,6348,025.2,045.2,0.128,771.1,01.15,0.508
2014-03-09 03:48:00,5556E-2,5C000490,-0724,1375,6480,025.2,045.2,0.128,771.1,01.15,0.508
2014-03-09 03:49:00,5629E-2,5C000490,-0724,1375,6448,025.2,045.2,0.128,771.1,01.15,0.508
2014-03-09 03:50:00,5594E-2,5C000490,-0724,1375,6492,025.2,045.2,0.128,771.0,01.15,0.508
2014-03-09 03:51:00,5626E-2,5C000490,-0724,1375,6434,025.2,045.2,0.128,771.1,01.15,0.508
2014-03-09 03:52:00,5583E-2,5C000490,-0724,1375,6441,025.2,045.2,0.128,771.1,01.15,0.508
2014-03-09 03:53:00,5689E-2,5C000490,-0724,1375,6366,025.2,045.2,0.128,771.1,01.15,0.508
2014-03-09 03:54:00,5675E-2,5C000490,-0724,1375,6377,025.3,045.3,0.128,771.1,01.15,0.508
2014-03-09 03:55:00,5617E-2,5C000490,-0724,1375,6343,025.3,045.2,0.128,771.1,01.15,0.508
2014-03-09 03:56:00,5553E-2,5C000490,-0724,1375,6308,025.3,045.2,0.128,771.0,01.15,0.508
2014-03-09 03:57:00,5610E-2,5C000490,-0724,1375,6309,025.3,045.2,0.128,771.1,01.15,0.508
2014-03-09 03:58:00,5631E-2,5C000490,-0724,1375,6372,025.3,045.2,0.128,771.1,01.15,0.508
2014-03-09 03:59:00,5657E-2,5C000490,-0724,1375,6326,025.3,045.2,0.128,771.1,01.15,0.508
2014-03-09 04:00:00,5587E-2,5C000490,-0724,1375,6311,025.3,045.2,0.128,771.0,01.15,0.508
2014-03-09 04:01:00,5652E-2,5C000490,-0724,1375,6269,025.3,045.2,0.128,771.1,01.15,0.508
2014-03-09 04:02:00,5651E-2,5C000490,-0724,1375,6295,025.3,045.2,0.128,771.1,01.15,0.508
2014-03-09 04:03:00,5615E-2,5C000490,-0724,1375,6286,025.4,045.2,0.128,771.0,01.15,0.508
2014-03-09 04:04:00,5651E-2,5C000490,-0724,1375,6285,025.4,045.2,0.128,771.1,01.15,0.508
2014-03-09 04:05:00,5642E-2,5C000490,-0724,1375,6305,025.4,045.2,0.128,771.0,01.15,0.508
2014-03-09 04:06:00,5655E-2,5C000490,-0724,1375,6390,025.3,045.2,0.127,771.0,01.15,0.508
2014-03-09 04:07:00,5672E-2,5C000490,-0724,1375,6317,025.4,045.2,0.128,771.0,01.15,0.508
2014-03-09 04:08:00,5709E-2,5C000490,-0724,1375,6270,025.4,045.2,0.127,771.0,01.15,0.508
2014-03-09 04:09:00,5645E-2,5C000490,-0724,1375,6343,025.4,045.2,0.127,771.1,01.15,0.508
2014-03-09 04:10:00,5710E-2,5C000490,-0724,1375,6222,025.4,045.2,0.127,771.1,01.15,0.508
2014-03-09 04:11:00,5736E-2,5C000490,-0724,1375,6255,025.4,045.2,0.127,771.1,01.15,0.508
2014-03-09 04:12:00,5686E-2,5C000490,-0724,1375,6257,025.4,045.2,0.127,771.1,01.15,0.508
2014-03-09 04:13:00,5733E-2,5C000490,-0724,1375,6277,025.5,045.2,0.127,771.0,01.15,0.508
2014-03-09 04:14:00,5760E-2,5C000490,-0724,1375,6248,025.5,045.2,0.127,771.0,01.15,0.508
2014-03-09 04:15:00,5737E-2,5C000490,-0724,1375,6233,025.5,045.2,0.127,771.0,01.15,0.508
2014-03-09 04:16:00,5705E-2,5C000490,-0724,1375,6213,025.5,045.2,0.127,771.1,01.15,0.508
2014-03-09 04:17:00,5791E-2,5C000490,-0724,1375,6210,025.5,045.2,0.127,771.0,01.15,0.508
2014-03-09 04:18:00,5805E-2,5C000490,-0724,1375,6220,025.5,045.2,0.127,770.9,01.15,0.508
2014-03-09 04:19:00,5781E-2,5C000490,-0724,1375,6151,025.5,045.2,0.127,771.0,01.15,0.508
2014-03-09 04:20:00,5718E-2,5C000490,-0724,1375,6197,025.5,045.2,0.127,771.0,01.15,0.508
2014-03-09 04:21:00,5781E-2,5C000490,-0724,1375,6222,025.5,045.2,0.127,770.9,01.15,0.508
2014-03-09 04:22:00,5797E-2,5C000490,-0724,1375,6197,025.5,045.2,0.127,770.9,01.15,0.508
2014-03-09 04:23:00,5736E-2,5C000490,-0724,1375,6143,025.6,045.2,0.127,771.0,01.15,0.508